Wetterdaten: aktuell Dienstag, 21.11.2017 11:09
Datum Zeit Temperatur Bodentemp. Luftfeuchte Luftdruck Regen Wind Richtung Richtung Sonnenschein
21.11.2017 11:09 11,3 C 7,3 C 100 % 1011 hPa 0,4 l/m 18,8 km/h (3 Bft) W-SW22.5 250 0 min
21.11.2017 11:04 11,3 C 7,2 C 100 % 1011 hPa 0,0 l/m 20,2 km/h (4 Bft) W-SW45 255 0 min
21.11.2017 10:59 11,3 C 7,2 C 100 % 1011 hPa 0,0 l/m 15,9 km/h (3 Bft) W22.5 265 0 min
21.11.2017 10:54 11,2 C 7,2 C 100 % 1011 hPa 0,4 l/m 23,6 km/h (4 Bft) W-SW67.5 250 0 min
21.11.2017 10:49 11,1 C 7,2 C 100 % 1011 hPa 0,0 l/m 19,3 km/h (3 Bft) W45 260 0 min
21.11.2017 10:43 11,1 C 7,1 C 100 % 1011 hPa 0,0 l/m 12,0 km/h (2 Bft) W45 275 0 min
21.11.2017 10:39 11,1 C 7,1 C 100 % 1011 hPa 0,4 l/m 15,7 km/h (3 Bft) W45 265 0 min
21.11.2017 10:34 11,1 C 7,1 C 100 % 1011 hPa 0,0 l/m 8,8 km/h (2 Bft) W22.5 280 0 min
21.11.2017 10:29 11,1 C 7,1 C 100 % 1011 hPa 0,4 l/m 26,8 km/h (4 Bft) W45 260 0 min
21.11.2017 10:23 11,1 C 7,1 C 100 % 1011 hPa 0,0 l/m 19,3 km/h (3 Bft) W-SW22.5 250 0 min
21.11.2017 10:19 11,0 C 7,0 C 100 % 1011 hPa 0,4 l/m 16,3 km/h (3 Bft) W-SW45 245 0 min
21.11.2017 10:14 11,0 C 7,0 C 100 % 1010 hPa 0,0 l/m 10,5 km/h (2 Bft) W-SW22.5 250 0 min
21.11.2017 10:09 11,0 C 7,0 C 100 % 1010 hPa 0,4 l/m 4,5 km/h (1 Bft) W-SW22.5 250 0 min
21.11.2017 10:04 11,0 C 7,1 C 100 % 1010 hPa 0,4 l/m 13,1 km/h (3 Bft) W-SW22.5 250 0 min
21.11.2017 09:59 11,0 C 7,1 C 100 % 1010 hPa 0,0 l/m 15,2 km/h (3 Bft) W-SW22.5 250 0 min
21.11.2017 09:54 11,0 C 7,1 C 100 % 1010 hPa 0,4 l/m 12,5 km/h (2 Bft) W-SW22.5 240 0 min
21.11.2017 09:48 11,0 C 7,1 C 100 % 1010 hPa 0,4 l/m 13,7 km/h (3 Bft) W-SW45 240 0 min
21.11.2017 09:44 11,0 C 7,0 C 100 % 1010 hPa 0,4 l/m 14,1 km/h (3 Bft) SW45 230 0 min
21.11.2017 09:39 10,9 C 7,1 C 100 % 1010 hPa 0,0 l/m 13,9 km/h (3 Bft) SW45 235 0 min
21.11.2017 09:34 10,9 C 7,0 C 100 % 1010 hPa 0,4 l/m 14,1 km/h (3 Bft) W-SW22.5 250 0 min
21.11.2017 09:28 11,0 C 7,0 C 100 % 1010 hPa 0,0 l/m 11,7 km/h (2 Bft) W-SW22.5 245 0 min
21.11.2017 09:24 11,0 C 7,0 C 100 % 1010 hPa 0,0 l/m 15,6 km/h (3 Bft) W-SW45 245 0 min
21.11.2017 09:19 10,9 C 7,0 C 100 % 1010 hPa 0,0 l/m 12,3 km/h (2 Bft) W-SW22.5 240 0 min
21.11.2017 09:14 10,9 C 7,0 C 100 % 1010 hPa 0,0 l/m 18,1 km/h (3 Bft) W-SW22.5 240 0 min
21.11.2017 09:09 10,9 C 7,0 C 100 % 1010 hPa 0,0 l/m 16,8 km/h (3 Bft) W-SW45 240 0 min
21.11.2017 09:04 10,9 C 7,0 C 100 % 1010 hPa 0,0 l/m 17,8 km/h (3 Bft) W-SW22.5 250 0 min
21.11.2017 08:59 10,9 C 6,9 C 100 % 1010 hPa 0,0 l/m 16,3 km/h (3 Bft) W-SW22.5 245 0 min
21.11.2017 08:53 10,9 C 7,0 C 100 % 1010 hPa 0,4 l/m 15,2 km/h (3 Bft) W-SW22.5 245 0 min
21.11.2017 08:49 10,9 C 6,9 C 100 % 1010 hPa 0,0 l/m 14,6 km/h (3 Bft) W-SW22.5 245 0 min
21.11.2017 08:44 10,8 C 6,9 C 100 % 1010 hPa 0,0 l/m 14,6 km/h (3 Bft) W-SW22.5 245 0 min
21.11.2017 08:39 10,8 C 6,9 C 100 % 1010 hPa 0,0 l/m 16,3 km/h (3 Bft) W-SW22.5 245 0 min
21.11.2017 08:33 10,8 C 6,9 C 100 % 1010 hPa 0,0 l/m 14,3 km/h (3 Bft) W-SW22.5 245 0 min
21.11.2017 08:29 10,7 C 6,9 C 100 % 1010 hPa 0,0 l/m 10,6 km/h (2 Bft) W-SW22.5 245 0 min
21.11.2017 08:24 10,7 C 6,8 C 100 % 1010 hPa 0,0 l/m 13,6 km/h (3 Bft) W-SW22.5 240 0 min
21.11.2017 08:19 10,7 C 6,8 C 100 % 1010 hPa 0,0 l/m 9,0 km/h (2 Bft) W-SW45 250 0 min
21.11.2017 08:14 10,7 C 6,8 C 100 % 1010 hPa 0,0 l/m 12,0 km/h (2 Bft) W-SW45 250 0 min
21.11.2017 08:09 10,7 C 6,8 C 100 % 1010 hPa 0,0 l/m 10,4 km/h (2 Bft) W-SW22.5 250 0 min
21.11.2017 08:04 10,7 C 6,9 C 100 % 1010 hPa 0,4 l/m 8,4 km/h (2 Bft) W-SW45 255 0 min
21.11.2017 07:58 10,7 C 6,9 C 100 % 1010 hPa 0,4 l/m 11,1 km/h (2 Bft) W22.5 270 0 min
21.11.2017 07:54 10,7 C 6,9 C 100 % 1010 hPa 0,0 l/m 12,6 km/h (3 Bft) W-SW22.5 255 0 min
21.11.2017 07:49 10,7 C 6,8 C 100 % 1010 hPa 0,0 l/m 12,1 km/h (2 Bft) W-SW45 255 0 min
21.11.2017 07:44 10,7 C 6,8 C 100 % 1010 hPa 0,0 l/m 9,8 km/h (2 Bft) W45 260 0 min
21.11.2017 07:38 10,7 C 6,8 C 100 % 1010 hPa 0,0 l/m 13,1 km/h (3 Bft) W45 260 0 min
21.11.2017 07:34 10,6 C 6,8 C 100 % 1010 hPa 0,0 l/m 14,2 km/h (3 Bft) W22.5 260 0 min
21.11.2017 07:29 10,6 C 6,8 C 100 % 1010 hPa 0,0 l/m 14,0 km/h (3 Bft) W-SW22.5 255 0 min
21.11.2017 07:24 10,6 C 6,8 C 100 % 1010 hPa 0,0 l/m 14,6 km/h (3 Bft) W-SW22.5 250 0 min
21.11.2017 07:19 10,6 C 6,8 C 100 % 1010 hPa 0,0 l/m 16,7 km/h (3 Bft) W-SW22.5 255 0 min
21.11.2017 07:14 10,7 C 6,7 C 100 % 1010 hPa 0,0 l/m 15,1 km/h (3 Bft) W67.5 260 0 min
21.11.2017 07:09 10,7 C 6,8 C 100 % 1010 hPa 0,0 l/m 12,9 km/h (3 Bft) W45 270 0 min
_ Min-Zeit 16:14 16:24 13:04 22:19 - 15:29 - - -
Minimum _ 4,0 C 2,7 C 93 % 1009 hPa - 0,0 km/h (0 Bft) - - -
_ Max-Zeit 10:59 11:09 15:04 12:04 19:04 00:54 - - 12:04
Maximum _ 11,3 C 7,3 C 100 % 1018 hPa 0,7 l/m 34,3 km/h
W-SW (5 Bft)
- - 0 min
Durchschnitt _ 7,6 C 5,0 C 99 % 1011 hPa #23,4 l/m 14,0 km/h (3 Bft) W-SW - #0 min.